{"data":{"norad_id":56697,"intl_designator":"2023-067K","name":"STARLINK-30130","alt_names":[],"object_type":"PAYLOAD","status":"ACTIVE","operator":null,"country":"US","launch_date":"2023-05-19","launch_site_code":"AFETR","launch_vehicle":null,"mission":null,"orbit_class":"UNKNOWN","rcs_meters":null,"size_class":null,"mass_kg":null,"dimensions":null,"purposes":["comms"],"wikipedia_slug":null,"has_3d_model":false,"image_url":null,"decayed_at":null,"tle_current":{"epoch":"2026-09-20T08:24:46.268928Z","epoch_age_seconds":127857,"freshness":"FRESH","line1":"1 56697U 23067K   26263.35053552 -.00000309  00000+0 -17263-5 0  9995","line2":"2 56697  43.0023 251.4810 0000916 274.5924  85.4823 15.27575486185214","mean_motion":15.27575486,"eccentricity":9.16e-5,"inclination_deg":43.0023,"raan_deg":251.481,"arg_perigee_deg":274.5924,"mean_anomaly_deg":85.4823,"bstar":-1.7263e-6,"rev_number":18521,"period_min":94.267027272785,"perigee_km":482.43412672833,"apogee_km":483.69109849736,"semimajor_km":6861.1996126128,"source":"CELESTRAK","updated_at":"2026-09-21T09:00:33.482281Z"}}}